NCEI - Coasts & Oceans THREDDS Server Catalog https://www.ncei.noaa.gov/thredds-ocean/catalog/ndbc/oceansites/DATA/T0N110W/catalog.html


Dataset Size Last Modified
     Folder  T0N110W   --
         OS_T0N110W_QM015A-20130329_R_POS.nc 184.6 Kbytes 2014-05-09T15:12:25Z
         OS_T0N110W_PM979A-20110802_R_POS.nc 113.3 Kbytes 2014-05-09T15:12:25Z
         OS_T0N110W_PM911A-20100722_R_POS.nc 53.49 Kbytes 2014-05-09T15:12:25Z
         OS_T0N110W_PM885A-20100315_R_POS.nc 36.50 Kbytes 2014-05-09T15:12:25Z
         OS_T0N110W_PM855A-20090919_R_POS.nc 19.40 Kbytes 2014-05-09T15:12:25Z
         OS_T0N110W_PM754B-20081228_R_POS.nc 24.40 Kbytes 2014-05-09T15:12:25Z
         OS_T0N110W_PM754A-20080701_R_POS.nc 60.46 Kbytes 2014-05-09T15:12:25Z
         OS_T0N110W_PM666B-20071229_R_POS.nc 58.26 Kbytes 2014-05-09T15:12:25Z
         OS_T0N110W_PM666A-20070412_R_POS.nc 82.54 Kbytes 2014-05-09T15:12:25Z
         OS_T0N110W_PM655A-20061122_R_POS.nc 25.28 Kbytes 2014-05-09T15:12:25Z
         OS_T0N110W_DM386A-20200716_R_WIND_10min.nc 1.745 Mbytes 2021-09-07T02:08:51Z
         OS_T0N110W_DM386A-20200716_R_TEMP_10min.nc 4.348 Mbytes 2021-09-07T02:08:51Z
         OS_T0N110W_DM386A-20200716_R_SST_10min.nc 873.9 Kbytes 2021-09-07T02:08:50Z
         OS_T0N110W_DM386A-20200716_R_SALT_hourly.nc 4.523 Mbytes 2021-09-07T02:08:50Z
         OS_T0N110W_DM386A-20200716_R_RH_10min.nc 874.1 Kbytes 2021-09-07T02:08:50Z
         OS_T0N110W_DM386A-20200716_R_RAIN_10min.nc 866.6 Kbytes 2021-09-07T02:08:50Z
         OS_T0N110W_DM386A-20200716_R_RAD_2min.nc 4.348 Mbytes 2021-09-07T02:08:50Z
         OS_T0N110W_DM386A-20200716_R_PRES_10min.nc 1.013 Mbytes 2021-09-07T02:08:50Z
         OS_T0N110W_DM386A-20200716_R_POS.nc 149.2 Kbytes 2021-09-07T02:08:50Z
         OS_T0N110W_DM386A-20200716_R_MET_10min.nc 2.790 Mbytes 2021-09-07T02:08:50Z
         OS_T0N110W_DM386A-20200716_R_LWR_2min.nc 3.490 Mbytes 2021-09-07T02:08:50Z
         OS_T0N110W_DM386A-20200716_R_CURR_hourly.nc 1.845 Mbytes 2021-09-07T02:08:50Z
         OS_T0N110W_DM386A-20200716_R_BARO_hourly.nc 149.9 Kbytes 2021-09-07T02:08:50Z
         OS_T0N110W_DM386A-20200716_R_AIRT_10min.nc 874.2 Kbytes 2021-09-07T02:08:50Z
         OS_T0N110W_DM336A-20190703_R_WIND_10min.nc 2.166 Mbytes 2020-07-22T02:03:24Z
         OS_T0N110W_DM336A-20190703_R_TEMP_10min.nc 6.912 Mbytes 2020-07-22T02:03:23Z
         OS_T0N110W_DM336A-20190703_R_SST_10min.nc 1.084 Mbytes 2020-07-22T02:03:23Z
         OS_T0N110W_DM336A-20190703_R_SALT_hourly.nc 5.618 Mbytes 2020-07-22T02:03:23Z
         OS_T0N110W_DM336A-20190703_R_SALT_10min.nc 1.792 Mbytes 2019-10-31T02:02:45Z
         OS_T0N110W_DM336A-20190703_R_RH_10min.nc 1.084 Mbytes 2020-07-22T02:03:23Z
         OS_T0N110W_DM336A-20190703_R_RAIN_10min.nc 1.081 Mbytes 2020-07-19T02:04:59Z
         OS_T0N110W_DM336A-20190703_R_RAD_2min.nc 5.401 Mbytes 2020-07-22T02:03:23Z
         OS_T0N110W_DM336A-20190703_R_PRES_10min.nc 1.516 Mbytes 2020-07-22T02:03:23Z
         OS_T0N110W_DM336A-20190703_R_POS.nc 147.7 Kbytes 2020-07-22T02:03:23Z
         OS_T0N110W_DM336A-20190703_R_MET_10min.nc 3.464 Mbytes 2020-07-22T02:03:23Z
         OS_T0N110W_DM336A-20190703_R_LWR_2min.nc 5.401 Mbytes 2020-07-22T02:03:23Z
         OS_T0N110W_DM336A-20190703_R_CURR_hourly.nc 2.826 Mbytes 2020-07-22T02:03:23Z
         OS_T0N110W_DM336A-20190703_R_BARO_hourly.nc 185.0 Kbytes 2020-07-22T02:03:23Z
         OS_T0N110W_DM336A-20190703_R_AIRT_10min.nc 1.084 Mbytes 2020-07-22T02:03:23Z
         OS_T0N110W_DM281A-20180502_R_WIND_10min.nc 2.425 Mbytes 2019-07-16T02:06:37Z
         OS_T0N110W_DM281A-20180502_R_TEMP_10min.nc 6.074 Mbytes 2019-07-16T02:06:37Z
         OS_T0N110W_DM281A-20180502_R_SST_10min.nc 1.219 Mbytes 2019-07-16T02:06:37Z
         OS_T0N110W_DM281A-20180502_R_SALT_10min.nc 6.318 Mbytes 2019-07-16T02:06:37Z
         OS_T0N110W_DM281A-20180502_R_RH_10min.nc 1.214 Mbytes 2019-07-16T02:06:37Z
         OS_T0N110W_DM281A-20180502_R_RAIN_10min.nc 1.190 Mbytes 2019-07-05T02:02:02Z
         OS_T0N110W_DM281A-20180502_R_RAD_2min.nc 531.2 Kbytes 2019-07-16T02:06:37Z
         OS_T0N110W_DM281A-20180502_R_PRES_10min.nc 1.461 Mbytes 2019-07-16T02:06:37Z
         OS_T0N110W_DM281A-20180502_R_POS.nc 165.7 Kbytes 2019-07-16T02:06:37Z
         OS_T0N110W_DM281A-20180502_R_MET_10min.nc 3.878 Mbytes 2019-07-16T02:06:37Z
         OS_T0N110W_DM281A-20180502_R_LWR_2min.nc 525.9 Kbytes 2019-07-16T02:06:37Z
         OS_T0N110W_DM281A-20180502_R_CURR_hourly.nc 1.623 Mbytes 2019-07-16T02:06:37Z
         OS_T0N110W_DM281A-20180502_R_BARO_hourly.nc 207.2 Kbytes 2019-07-16T02:06:37Z
         OS_T0N110W_DM281A-20180502_R_AIRT_10min.nc 1.214 Mbytes 2019-07-16T02:06:37Z
         OS_T0N110W_DM234A-20170610_R_WIND_10min.nc 1.848 Mbytes 2018-05-05T02:07:01Z
         OS_T0N110W_DM234A-20170610_R_TEMP_10min.nc 4.606 Mbytes 2018-05-05T02:07:01Z
         OS_T0N110W_DM234A-20170610_R_SST_10min.nc 925.3 Kbytes 2018-05-05T02:07:01Z
         OS_T0N110W_DM234A-20170610_R_SALT_10min.nc 4.791 Mbytes 2018-05-05T02:07:01Z
         OS_T0N110W_DM234A-20170610_R_RH_10min.nc 925.4 Kbytes 2018-05-05T02:07:01Z
         OS_T0N110W_DM234A-20170610_R_RAIN_10min.nc 110.2 Kbytes 2018-05-04T02:07:11Z
         OS_T0N110W_DM234A-20170610_R_PRES_10min.nc 1.105 Mbytes 2018-05-05T02:07:00Z
         OS_T0N110W_DM234A-20170610_R_POS.nc 126.4 Kbytes 2019-03-07T21:10:18Z
         OS_T0N110W_DM234A-20170610_R_MET_10min.nc 2.955 Mbytes 2018-05-05T02:07:00Z
         OS_T0N110W_DM234A-20170610_R_CURR_hourly.nc 1.695 Mbytes 2018-05-05T02:07:00Z
         OS_T0N110W_DM234A-20170610_R_BARO_hourly.nc 158.4 Kbytes 2018-05-05T02:07:00Z
         OS_T0N110W_DM234A-20170610_R_AIRT_10min.nc 925.5 Kbytes 2018-05-05T02:07:00Z
         OS_T0N110W_DM186A-20160413_R_WIND_10min.nc 2.342 Mbytes 2017-06-14T01:54:54Z
         OS_T0N110W_DM186A-20160413_R_TEMP_10min.nc 5.921 Mbytes 2017-06-14T01:54:54Z
         OS_T0N110W_DM186A-20160413_R_SST_10min.nc 1.188 Mbytes 2017-06-14T01:54:53Z
         OS_T0N110W_DM186A-20160413_R_SALT_10min.nc 6.082 Mbytes 2017-06-15T01:52:30Z
         OS_T0N110W_DM186A-20160413_R_RH_10min.nc 1.172 Mbytes 2017-06-14T01:54:53Z
         OS_T0N110W_DM186A-20160413_R_RAIN_10min.nc 1.121 Mbytes 2017-06-13T01:57:43Z
         OS_T0N110W_DM186A-20160413_R_RAD_2min.nc 2.140 Mbytes 2017-06-15T01:52:29Z
         OS_T0N110W_DM186A-20160413_R_PRES_10min.nc 1.375 Mbytes 2017-06-14T01:54:53Z
         OS_T0N110W_DM186A-20160413_R_POS.nc 162.4 Kbytes 2018-12-13T17:23:37Z
         OS_T0N110W_DM186A-20160413_R_MET_10min.nc 3.746 Mbytes 2017-06-14T01:54:52Z
         OS_T0N110W_DM186A-20160413_R_LWR_2min.nc 2.140 Mbytes 2017-06-15T01:52:29Z
         OS_T0N110W_DM186A-20160413_R_CURR_hourly.nc 886.4 Kbytes 2017-06-15T01:52:29Z
         OS_T0N110W_DM186A-20160413_R_BARO_hourly.nc 199.5 Kbytes 2017-06-15T01:52:29Z
         OS_T0N110W_DM186A-20160413_R_AIRT_10min.nc 1.172 Mbytes 2017-06-14T01:54:52Z
         OS_T0N110W_DM137A-20150428_R_WIND_10min.nc 2.005 Mbytes 2016-04-16T01:45:32Z
         OS_T0N110W_DM137A-20150428_R_TEMP_10min.nc 4.999 Mbytes 2016-04-16T01:45:33Z
         OS_T0N110W_DM137A-20150428_R_SST_10min.nc 1.003 Mbytes 2016-04-16T01:45:32Z
         OS_T0N110W_DM137A-20150428_R_SALT_10min.nc 5.198 Mbytes 2016-04-16T01:45:32Z
         OS_T0N110W_DM137A-20150428_R_RH_10min.nc 1.004 Mbytes 2016-04-16T01:45:32Z
         OS_T0N110W_DM137A-20150428_R_RAIN_10min.nc 429.0 Kbytes 2016-04-14T01:47:05Z
         OS_T0N110W_DM137A-20150428_R_RAD_2min.nc 4.999 Mbytes 2016-04-16T01:45:33Z
         OS_T0N110W_DM137A-20150428_R_PRES_10min.nc 1.200 Mbytes 2016-04-16T01:45:32Z
         OS_T0N110W_DM137A-20150428_R_POS.nc 136.8 Kbytes 2020-05-20T22:51:37Z
         OS_T0N110W_DM137A-20150428_R_MET_10min.nc 3.207 Mbytes 2016-04-16T01:45:32Z
         OS_T0N110W_DM137A-20150428_R_LWR_2min.nc 4.995 Mbytes 2016-04-16T01:45:32Z
         OS_T0N110W_DM137A-20150428_R_CURR_hourly.nc 531.3 Kbytes 2016-04-16T01:45:32Z
         OS_T0N110W_DM137A-20150428_R_BARO_hourly.nc 171.5 Kbytes 2016-04-16T01:45:32Z
         OS_T0N110W_DM137A-20150428_R_AIRT_10min.nc 1.004 Mbytes 2016-04-16T01:45:32Z
         OS_T0N110W_DM072A-20140621_R_WIND_10min.nc 1.741 Mbytes 2015-06-29T13:59:34Z
         OS_T0N110W_DM072A-20140621_R_TEMP_10min.nc 4.382 Mbytes 2015-06-29T13:59:31Z
         OS_T0N110W_DM072A-20140621_R_SST_10min.nc 880.4 Kbytes 2015-06-29T13:59:30Z
         OS_T0N110W_DM072A-20140621_R_SALT_10min.nc 4.558 Mbytes 2015-06-29T13:59:34Z
         OS_T0N110W_DM072A-20140621_R_RH_10min.nc 872.0 Kbytes 2015-06-29T13:59:30Z
         OS_T0N110W_DM072A-20140621_R_RAD_2min.nc 4.339 Mbytes 2015-06-29T13:59:33Z
         OS_T0N110W_DM072A-20140621_R_PRES_10min.nc 1.055 Mbytes 2015-06-29T13:59:30Z
         OS_T0N110W_DM072A-20140621_R_POS.nc 120.4 Kbytes 2020-05-20T22:51:36Z
         OS_T0N110W_DM072A-20140621_R_MET_10min.nc 2.784 Mbytes 2015-06-29T13:59:34Z
         OS_T0N110W_DM072A-20140621_R_LWR_2min.nc 4.338 Mbytes 2015-06-29T13:59:30Z
         OS_T0N110W_DM072A-20140621_R_CURR_hourly.nc 1.733 Mbytes 2015-06-29T13:59:30Z
         OS_T0N110W_DM072A-20140621_R_BARO_hourly.nc 149.5 Kbytes 2015-06-29T13:59:34Z
         OS_T0N110W_DM072A-20140621_R_AIRT_10min.nc 872.0 Kbytes 2015-06-29T13:59:30Z

NCEI - Coasts & Oceans THREDDS Server at NOAA - National Centers for Environmental Information see Info
THREDDS Data Server [Version 4.6.11 - 2017-12-04T16:22:46-0700] Documentation